Regional Weather Roundup
Issued by NWS

Home | Current Version | Previous Version | Graphics & Text | Print | Product List | Glossary On
Versions: 1 2 3 4 5 6 7 8 9 10 11 12 13 14 15 16 17 18 19 20 21 22 23 24 25 26 27 28 29 30 31 32 33 34 35 36 37 38 39 40 41 42 43 44 45 46 47 48 49 50
000
ASUS43 KLSX 300059
RWRMO

WEATHER SUMMARY FOR MISSOURI
NATIONAL WEATHER SERVICE SPRINGFIELD MO
700 PM CST THU JAN 29 2015

NOTE: "FAIR" INDICATES FEW OR NO CLOUDS BELOW 12,000 FEET WITH NO
       SIGNIFICANT WEATHER AND/OR OBSTRUCTIONS TO VISIBILITY.
       CURRENT SKY AND/OR WEATHER CONDITIONS ARE NOT AVAILABLE FOR
       CHILLICOTHE AND FARMINGTON.

MOZ001>031-035>038-043-044-053-054-300200-
...NORTHERN AND WESTERN MISSOURI...

CITY           SKY/WX    TMP DP  RH WIND       PRES   REMARKS
KANSAS CTY INT CLEAR     32  24  72 NW6       30.47R WCI  26
KANSAS C DTWN  CLEAR     37  24  59 N3        30.48R
LEE`S SUMMIT   FAIR      35  24  64 N8        30.47R WCI  29
ST JOSEPH      CLEAR     31  23  72 NW5       30.50R WCI  26
CHILLICOTHE      N/A     36  24  62 NW12G23   30.47R WCI  28
KIRKSVILLE     CLOUDY    34  23  64 NW16G25   30.42R WCI  24

$$
MOZ066>068-077>081-088>096-101>105-300200-
...SOUTHWEST MISSOURI...

CITY           SKY/WX    TMP DP  RH WIND       PRES   REMARKS
SPRINGFIELD    CLEAR     35  27  72 NW10      30.42R WCI  27
JOPLIN         CLEAR     37  27  67 N5        30.47R

$$
MOZ032>034-039>042-045>050-055>058-069>072-300200-
...CENTRAL MISSOURI...

CITY           SKY/WX    TMP DP  RH WIND       PRES   REMARKS
COLUMBIA       CLOUDY    37  26  64 NW18G29   30.41R WCI  27
JEFFERSON CITY CLOUDY    40  26  57 NW16      30.42R
ROLLA          CLOUDY    38  27  64 NW12G22   30.37R
SEDALIA        CLOUDY    38  26  62 NW14      30.45R WCI  30
OSAGE BEACH    CLOUDY    39  25  56 NW7G16    30.42R

$$
MOZ051-052-059>065-300200-
...EAST CENTRAL MISSOURI...

CITY           SKY/WX    TMP DP  RH WIND       PRES   REMARKS
ST LOUIS INTL  CLOUDY    38  27  64 NW24G32   30.36R WCI  27
SPIRIT OF STL  CLOUDY    38  27  64 NW17G24   30.37R WCI  28
ST CHARLES     CLOUDY    37  27  67 N22G30    30.37R WCI  26

$$
MOZ072>076-082>087-097>100-106>115-300200-
...SOUTH CENTRAL AND SOUTHEAST MISSOURI...

CITY           SKY/WX    TMP DP  RH WIND       PRES   REMARKS
CAPE GIRARDEAU CLOUDY    41  31  67 NW7       30.33R
FARMINGTON     CLOUDY    39  27  60 NW8       30.36R
POPLAR BLUFF   CLOUDY    42  29  59 NW8       30.35R
WEST PLAINS    CLOUDY    39  27  62 NW10      30.39R

$$



USA.gov is the U.S. government's official web portal to all federal, state and local government web resources and services.